DW7658 Weather Reports


Display with metric or nautical units.
time (UTC)temp
F
wind
direction
speed
MPH
gust
MPH
rain 1hr
in
rain 24hr
in
rain mn
in
humidity
%
barometer
mb
20260903230030 89 26 0.0 1.0 0.00 0.00 0.00 64 1008.2
20260903224529 89 276 0.0 1.0 0.00 0.00 0.00 63 1008.2
20260903223006 90 41 0.0 1.0 0.00 0.00 0.00 62 1007.9
20260903221506 91 278 0.0 5.0 0.00 0.00 0.00 60 1007.7
20260903220048 91 32 0.0 2.0 0.00 0.00 0.00 58 1007.5
20260903214547 93 331 0.0 1.0 0.00 0.00 0.00 56 1007.4
20260903213037 95 273 1.0 3.0 0.00 0.00 0.00 53 1007.4
20260903211528 97 287 0.0 1.0 0.00 0.00 0.00 51 1007.4
20260903210010 98 219 0.0 3.0 0.00 0.00 0.00 48 1007.4
20260903204509 97 226 0.0 7.0 0.00 0.00 0.00 49 1007.7
20260903203053 98 108 0.0 3.0 0.00 0.00 0.00 47 1007.8
20260903201545 99 102 0.0 6.0 0.00 0.00 0.00 48 1008.2
20260903200025 99 228 0.0 1.0 0.00 0.00 0.00 48 1008.5
20260903194523 99 315 0.0 5.0 0.00 0.00 0.00 45 1008.7
20260903193008 100 70 0.0 3.0 0.00 0.00 0.00 49 1008.7
20260903191503 100 295 0.0 2.0 0.00 0.00 0.00 47 1008.9
20260903190044 101 295 0.0 1.0 0.00 0.00 0.00 47 1009.1
20260903184549 99 133 0.0 3.0 0.00 0.00 0.00 50 1009.2
20260903183029 99 134 0.0 2.0 0.00 0.00 0.00 51 1009.2
20260903181525 100 93 1.0 3.0 0.00 0.00 0.00 46 1009.4
20260903180005 100 156 1.0 6.0 0.00 0.00 0.00 47 1009.6
20260903174503 101 191 0.0 3.0 0.00 0.00 0.00 48 1009.7
20260903173044 101 165 0.0 2.0 0.00 0.00 0.00 46 1009.8
20260903171546 101 146 0.0 4.0 0.00 0.00 0.00 48 1009.9
20260903170025 100 143 0.0 2.0 0.00 0.00 0.00 47 1010.0
20260903164524 99 188 0.0 4.0 0.00 0.00 0.00 48 1010.2
20260903163004 100 152 0.0 2.0 0.00 0.00 0.00 48 1010.4
20260903161503 100 156 0.0 3.0 0.00 0.00 0.00 48 1010.5
20260903160051 100 179 0.0 1.0 0.00 0.00 0.00 51 1010.5
20260903154548 99 170 0.0 2.0 0.00 0.00 0.00 53 1010.5
20260903153045 99 168 0.0 2.0 0.00 0.00 0.00 55 1010.7
20260903151544 98 173 0.0 1.0 0.00 0.00 0.00 57 1010.6
20260903150039 96 117 0.0 1.0 0.00 0.00 0.00 58 1010.6
20260903144540 96 145 0.0 0.0 0.00 0.00 0.00 57 1010.5
20260903143034 95 84 0.0 0.0 0.00 0.00 0.00 59 1010.5
20260903141530 94 79 0.0 0.0 0.00 0.00 0.00 62 1010.6
20260903140012 92 80 0.0 0.0 0.00 0.00 0.00 64 1010.6
20260903134508 90 79 0.0 0.0 0.00 0.00 0.00 67 1010.8
20260903133050 89 77 0.0 0.0 0.00 0.00 0.00 70 1010.9
20260903131540 86 79 0.0 0.0 0.00 0.00 0.00 73 1011.2
20260903130018 84 79 0.0 0.0 0.00 0.00 0.00 77 1011.3
20260903124514 81 79 0.0 0.0 0.00 0.00 0.00 83 1011.3
20260903123053 78 79 0.0 0.0 0.00 0.00 0.00 86 1011.3
20260903121555 75 79 0.0 0.0 0.00 0.00 0.00 86 1011.4
20260903120044 72 77 0.0 0.0 0.00 0.00 0.00 87 1011.3
20260903114532 0 0.0 0.0 0.00 0.00 0.00 1011.2
20260903113010 0 0.0 0.0 0.00 0.00 0.00 1011.1
20260903111505 0 0.0 0.0 0.00 0.00 0.00 1010.9
20260903110059 0 0.0 0.0 0.00 0.00 0.00 1010.8
20260903104546 0 0.0 0.0 0.00 0.00 0.00 1010.8
20260903103042 0 0.0 0.0 0.00 0.00 0.00 1010.6
20260903101538 0 0.0 0.0 0.00 0.00 0.00 1010.5
20260903100035 0 0.0 0.0 0.00 0.00 0.00 1010.6
20260903094528 0 0.0 0.0 0.00 0.00 0.00 1010.5
20260903093024 0 0.0 0.0 0.00 0.00 0.00 1010.5
20260903091519 0 0.0 0.0 0.00 0.00 0.00 1010.4
20260903090016 0 0.0 0.0 0.00 0.00 0.00 1010.4
20260903084511 0 0.0 0.0 0.00 0.00 0.00 1010.4
20260903083055 0 0.0 0.0 0.00 0.00 0.00 1010.3
20260903081551 0 0.0 0.0 0.00 0.00 0.00 1010.3
20260903080046 0 0.0 0.0 0.00 0.00 0.00 1010.3
20260903074556 71 71 0.0 0.0 0.00 0.00 0.00 89 1010.4
20260903073048 71 70 0.0 0.0 0.00 0.00 0.00 87 1010.3
20260903071540 71 71 0.0 0.0 0.00 0.00 0.00 87 1010.2
20260903070039 71 70 0.0 0.0 0.00 0.00 0.00 87 1010.2
20260903064539 72 71 0.0 0.0 0.00 0.00 0.00 87 1010.1
20260903063037 72 70 0.0 0.0 0.00 0.00 0.00 87 1010.1
20260903061532 72 70 0.0 0.0 0.00 0.00 0.00 87 1010.1
20260903060017 72 70 0.0 0.0 0.00 0.00 0.00 87 1010.2
20260903054604 72 71 0.0 0.0 0.00 0.00 0.00 87 1010.1
20260903053059 72 71 0.0 0.0 0.00 0.00 0.00 87 1010.1
20260903051540 73 71 0.0 0.0 0.00 0.00 0.00 87 1010.0
20260903050040 73 71 0.0 0.0 0.00 0.00 0.00 87 1009.9
20260903044521 73 70 0.0 0.0 0.00 0.00 0.00 87 1009.8
20260903043019 73 71 0.0 0.0 0.00 0.00 0.00 87 1009.8
20260903041502 73 71 0.0 0.0 0.00 0.00 0.00 87 1009.7
20260903040059 73 71 0.0 0.0 0.00 0.00 0.00 87 1009.8
20260903034543 74 71 0.0 0.0 0.00 0.00 0.00 87 1009.9
20260903033040 74 69 0.0 0.0 0.00 0.00 0.00 87 1010.0
20260903031525 74 61 0.0 0.0 0.00 0.00 0.00 86 1010.1
20260903030020 75 56 0.0 0.0 0.00 0.00 0.00 86 1010.2
20260903024501 75 57 0.0 0.0 0.00 0.00 0.00 86 1010.2
20260903023059 75 56 0.0 0.0 0.00 0.00 0.00 85 1010.2
20260903021540 76 56 0.0 0.0 0.00 0.00 0.00 85 1010.3
20260903020048 76 56 0.0 0.0 0.00 0.00 0.00 85 1010.3
20260903014521 77 57 0.0 0.0 0.00 0.00 0.00 84 1010.2
20260903013016 77 56 0.0 0.0 0.00 0.00 0.00 83 1010.0
20260903011617 78 56 0.0 0.0 0.00 0.00 0.00 83 1010.0
20260903010106 79 56 0.0 0.0 0.00 0.00 0.00 82 1009.7
20260903004534 80 56 0.0 0.0 0.00 0.00 0.00 81 1009.6
20260903003032 80 57 0.0 0.0 0.00 0.00 0.00 79 1009.5
20260903001517 82 57 0.0 0.0 0.00 0.00 0.00 77 1009.4
20260903000014 83 56 0.0 0.0 0.00 0.00 0.00 74 1009.4
20260902234600 84 57 0.0 0.0 0.00 0.00 0.00 73 1009.4
20260902233056 86 56 0.0 0.0 0.00 0.00 0.00 70 1009.4
20260902231545 87 57 0.0 0.0 0.00 0.00 0.00 66 1009.6